Bryce Canyon, UT

8:42 AM MST on December 09, 2019 (GMT -0700)
Bryce Canyon

Weather History for KBCE - August, 2019

Change the Weather History Date:

Wednesday, August 14, 2019

  Actual Average Record
Temperature  
Mean Temperature 64 °F -  
Max Temperature 84 °F 75 °F 88 °F (1962)
Min Temperature 44 °F 45 °F 36 °F (1988)
Degree Days  
Heating Degree Days 1    
Growing Degree Days 14 (Base 50)    
Moisture  
Dew Point 27 °F    
Average Humidity 30    
Maximum Humidity 55    
Minimum Humidity 9    
Precipitation  
Precipitation 0.00 in - - ()
Sea Level Pressure  
Sea Level Pressure 30.06 in    
Wind  
Wind Speed 8 mph (West)    
Max Wind Speed 17 mph    
Max Gust Speed 28 mph    
Visibility 10 miles    
Events      
Averages and records for this station are not official NWS values.
T = Trace of Precipitation, MM = Missing Value Source: NWS Daily Summary

Daily Weather History Graph

Daily Weather History Graph

Search for Another Location

Airport or City:

Astronomy

Aug. 14, 2019 Rise Set
Actual Time 6:43 AM MDT 8:22 PM MDT
Civil Twilight 6:15 AM MDT 8:50 PM MDT
Nautical Twilight 5:41 AM MDT 9:24 PM MDT
Astronomical Twilight 5:05 AM MDT 10:00 PM MDT
Moon 8:17 PM MDT (8/14) 5:46 AM MDT (8/14)
Length of Visible Light 14h 35m
Length of Day
13h 39m
Waxing Gibbous, 99% of the Moon is Illuminated
Aug 14
Waxing Gibbous
Aug 15
Full
Aug 23
Last Quarter
Aug 30
New
Sep 5
First Quarter

Hourly Weather History & Observations

Time (MDT) Temp. Windchill Dew Point Humidity Pressure Visibility Wind Dir Wind Speed Gust Speed Precip Events Conditions
12:53 AM 48.0 °F - 30.0 °F 50% 30.08 in 10.0 mi West 9.2 mph - N/A   Clear
1:53 AM 48.9 °F - 28.9 °F 46% 30.06 in 10.0 mi West 9.2 mph - N/A   Clear
2:53 AM 46.0 °F 41.9 °F 28.0 °F 50% 30.07 in 10.0 mi West 8.1 mph - N/A   Clear
3:53 AM 45.0 °F 40.6 °F 28.0 °F 52% 30.08 in 10.0 mi West 8.1 mph - N/A   Clear
4:53 AM 45.0 °F 40.1 °F 28.0 °F 52% 30.08 in 10.0 mi West 9.2 mph - N/A   Clear
5:53 AM 44.1 °F 39.0 °F 28.9 °F 55% 30.09 in 10.0 mi West 9.2 mph - N/A   Clear
6:53 AM 44.1 °F 40.1 °F 28.9 °F 55% 30.12 in 10.0 mi West 6.9 mph - N/A   Clear
7:53 AM 51.1 °F - 30.9 °F 46% 30.11 in 10.0 mi West 8.1 mph - N/A   Clear
8:53 AM 62.1 °F - 34.0 °F 35% 30.11 in 10.0 mi WNW 3.5 mph - N/A   Clear
9:53 AM 72.0 °F - 32.0 °F 23% 30.09 in 10.0 mi NNE 4.6 mph - N/A   Clear
10:53 AM 77.0 °F - 28.0 °F 17% 30.09 in 10.0 mi Variable 4.6 mph - N/A   Clear
11:53 AM 79.0 °F - 23.0 °F 13% 30.10 in 10.0 mi West 8.1 mph 16.1 mph N/A   Clear
12:53 PM 81.0 °F - 21.9 °F 11% 30.09 in 10.0 mi West 6.9 mph 17.3 mph N/A   Clear
1:53 PM 82.0 °F - 21.0 °F 10% 30.06 in 10.0 mi SSW 8.1 mph 20.7 mph N/A   Clear
2:53 PM 84.9 °F - 23.0 °F 10% 30.04 in 10.0 mi SSW 17.3 mph 27.6 mph N/A   Clear
3:53 PM 84.9 °F - 23.0 °F 10% 30.03 in 10.0 mi SW 8.1 mph 19.6 mph N/A   Clear
4:53 PM 84.0 °F - 18.0 °F 9% 30.02 in 10.0 mi Calm Calm - N/A   Clear
5:53 PM 84.0 °F - 24.1 °F 11% 30.02 in 10.0 mi Variable 6.9 mph - N/A   Clear
6:53 PM 82.0 °F - 24.1 °F 12% 30.02 in 10.0 mi West 9.2 mph - N/A   Clear
7:53 PM 77.0 °F - 26.1 °F 15% 30.02 in 10.0 mi WNW 6.9 mph - N/A   Clear
8:53 PM 62.1 °F - 30.0 °F 30% 30.05 in 10.0 mi WSW 9.2 mph - N/A   Clear
9:53 PM 60.1 °F - 30.0 °F 32% 30.04 in 10.0 mi WSW 8.1 mph - N/A   Clear
10:53 PM 55.9 °F - 28.9 °F 36% 30.03 in - Calm Calm - N/A   Unknown
11:53 PM 54.0 °F - 30.0 °F 40% 30.04 in 10.0 mi West 8.1 mph - N/A   Clear